306  
ASUS44 KMEG 151910  
RWRMEG  
MEMPHIS CWA HOURLY WEATHER ROUNDUP  
NATIONAL WEATHER SERVICE MEMPHIS TN  
200 PM CDT MON OCT 15 2018  
   
..WEST TENNESSEE
 
 
 
CITY SKY/WX TMP DP RH WIND PRES REMARKS
 
MEMPHIS INTL CLOUDY 57 53 86 N15 30.18F  
NWS MEMPHIS N/A 56 N/A N/A MISG N/A  
JACKSON CLOUDY 55 53 93 N12 30.19F  
COVINGTON CLOUDY 52 50 93 NE9 30.20F  
BOLIVAR CLOUDY 59 55 88 N8G17 30.17F  
LEXINGTON CLOUDY 57 55 94 N13 30.18S  
SELMER CLOUDY 59 57 94 N9G18 30.16F  
DYERSBURG LGT RAIN 51 49 92 N12 30.21F  
UNION CITY PTSUNNY 50 48 93 N14 30.20F  
PARIS PTSUNNY 52 50 93 N10 30.19F  
HUNTINGDON PTSUNNY 54 52 94 N7 30.17  
 
   
..EASTERN ARKANSAS
 
 
 
CITY SKY/WX TMP DP RH WIND PRES REMARKS
 
JONESBORO LGT RAIN 49 49 100 N8 30.26R  
BATESVILLE CLOUDY 47 45 93 NW7 30.29R  
NEWPORT LGT RAIN 48 46 93 N9 30.26F  
WALNUT RIDGE CLOUDY 48 46 93 N15 30.26F  
BLYTHEVILLE LGT RAIN 49 49 100 N16G23 30.23R  
SEARCY LGT RAIN 48 48 100 NE12 30.27R  
STUTTGART LGT RAIN 51 49 92 N14 30.24R  
PINE BLUFF CLOUDY 52 49 89 N15G21 30.23S  
MONTICELLO CLOUDY 60 56 86 N8 30.17F  
 
   
..NORTH MISSISSIPPI
 
 
 
CITY SKY/WX TMP DP RH WIND PRES REMARKS
 
TUPELO CLOUDY 68 62 81 NW13 30.12S  
OXFORD CLOUDY 63 57 82 N14G21 30.16S  
BATESVILLE CLOUDY 63 57 82 N8 30.15F  
OLIVE BRANCH CLOUDY 55 55 100 N12 30.17F  
TUNICA N/A 55 54 94 N12G21 30.20R  
CLARKSDALE CLOUDY 63 61 94 N15 30.19R  
CORINTH CLOUDY 63 57 82 N10 30.16R  
GREENWOOD CLOUDY 67 62 84 N9 30.12S  
COLUMBUS PTSUNNY 83 68 60 S7 30.06F  
STARKVILLE PTSUNNY 82 64 54 CALM 30.07F  
GOLDEN TRIANGL FAIR 86 67 52 VRB7 30.06F  
 
   
..SOUTHEAST MISSOURI
 
 
 
CITY SKY/WX TMP DP RH WIND PRES REMARKS
 
KENNETT PTSUNNY 48 48 100 N15 30.23F  
MALDEN CLOUDY 48 45 87 N13 30.27R  
WEST PLAINS CLOUDY 41 37 86 N8 30.33R  
POPLAR BLUFF PTSUNNY 48 42 80 N13 30.26R  
CAPE GIRARDEAU CLOUDY 46 39 76 N15G23 30.27F  
 
   
..NORTHWEST ALABAMA
 
 
 
CITY SKY/WX TMP DP RH WIND PRES REMARKS
 
MUSCLE SHOALS PTSUNNY 79 66 64 W13 30.10F  
 
   
..MIDDLE TENNESSEE
 
 
 
CITY SKY/WX TMP DP RH WIND PRES REMARKS
 
NASHVILLE CLOUDY 58 55 90 N9 30.17R FOG  
CLARKSVILLE LGT RAIN 52 49 89 NW6 30.20R  
DICKSON CLOUDY 55 55 100 N10 30.18R  
COLUMBIA CLOUDY 64 64 100 N12 30.13R  
LAWRENCEBURG MOCLDY 72 66 83 NW12G20 30.11R  
LEWISBURG CLOUDY 70 64 83 N13G24 30.10R  
 
   
..WESTERN KENTUCKY
 
 
 
CITY SKY/WX TMP DP RH WIND PRES REMARKS
 
PADUCAH CLOUDY 48 44 86 N7 30.22F  
FORT CAMPBELL LGT RAIN 52 52 100 N9 30.19  
 
   
..CENTRAL ARKANSAS
 
 
 
CITY SKY/WX TMP DP RH WIND PRES REMARKS
 
LITTLE ROCK LGT RAIN 49 48 97 N12 30.28R  
 
SKY/WX REPORTED AS FAIR MEANS FEW OR NO CLOUDS BELOW  
12 THOUSAND FEET.  
 
 
 
CLICK HERE TO GO TO PREVIOUS BULLETINS.

The Nexlab TN Page
The Nexlab MS Page
The Nexlab AR Page Main Text Page